Weather History for Westminster, MD

Change the Weather History Date:

Monday, March 10, 2014

  Actual Average (KTHV) Record (KTHV)
Temperature  
Mean Temperature 48 °F -  
Max Temperature 62 °F 0 °F 73 °F (2006)
Min Temperature 35 °F - 14 °F (2005)
Degree Days  
Heating Degree Days 16    
Moisture  
Dew Point 25 °F    
Average Humidity 45    
Maximum Humidity 56    
Minimum Humidity 31    
Precipitation  
Precipitation 0.00 in - - ()
Sea Level Pressure  
Sea Level Pressure 29.80 in    
Wind  
Wind Speed 6 mph (SW)    
Max Wind Speed 15 mph    
Max Gust Speed 18 mph    
Visibility 10 miles    
Events      
Averages and records for this station are not official NWS values.
T = Trace of Precipitation, MM = Missing Value Source: NWS Daily Summary

Daily Weather History Graph

Daily Weather History Graph

Search for Another Location

Airport:

Trip Planner

Search our weather history database for the weather conditions in past years. The results will help you decide how hot, cold, wet, or windy it might be!

Date:

Astronomy

Mar. 10, 2014 Rise Set
Actual Time 7:27 AM EDT 7:09 PM EDT
Civil Twilight 7:00 AM EDT 7:36 PM EDT
Nautical Twilight 6:29 AM EDT 8:07 PM EDT
Astronomical Twilight 5:57 AM EDT 8:39 PM EDT
Moon 1:52 PM EDT (3/10) 3:36 AM EDT (3/10)
Length of Visible Light 12h 36m
Length of Day
11h 42m
Waxing Gibbous, 70% of the Moon is Illuminated
Mar 10
Waxing Gibbous
Mar 16
Full
Mar 23
Last Quarter
Mar 30
New
Apr 7
First Quarter

Hourly Weather History & Observations

Time (EDT) Temp. Windchill Dew Point Humidity Pressure Visibility Wind Dir Wind Speed Gust Speed Precip Events Conditions
12:10 AM 35.6 °F 32.8 °F 17.6 °F 48% 29.99 in 10.0 mi SW 3.5 mph - N/A   Clear
12:30 AM 35.6 °F - 19.4 °F 52% 29.98 in 10.0 mi Calm Calm - N/A   Clear
12:50 AM 35.6 °F - 19.4 °F 52% 29.97 in 10.0 mi Calm Calm - N/A   Clear
1:10 AM 37.4 °F 34.9 °F 17.6 °F 45% 29.96 in 10.0 mi WSW 3.5 mph - N/A   Clear
1:30 AM 37.4 °F 33.8 °F 17.6 °F 45% 29.95 in 10.0 mi WSW 4.6 mph - N/A   Scattered Clouds
1:50 AM 37.4 °F 33.8 °F 21.2 °F 52% 29.95 in 10.0 mi SSW 4.6 mph - N/A   Clear
2:10 AM 37.4 °F - 21.2 °F 52% 29.93 in 10.0 mi Calm Calm - N/A   Clear
2:30 AM 37.4 °F 32.8 °F 21.2 °F 52% 29.93 in 10.0 mi SW 5.8 mph - N/A   Scattered Clouds
2:50 AM 37.4 °F 33.8 °F 21.2 °F 52% 29.92 in 10.0 mi WSW 4.6 mph - N/A   Clear
3:05 AM 37.4 °F 32.1 °F 21.2 °F 52% 29.92 in 10.0 mi SW 6.9 mph - N/A   Clear
3:30 AM 37.4 °F 34.9 °F 23.0 °F 56% 29.91 in 10.0 mi South 3.5 mph - N/A   Scattered Clouds
3:50 AM 37.4 °F 32.1 °F 21.2 °F 52% 29.90 in 10.0 mi SW 6.9 mph - N/A   Scattered Clouds
4:10 AM 37.4 °F 32.1 °F 21.2 °F 52% 29.89 in 10.0 mi SW 6.9 mph - N/A   Clear
4:30 AM 37.4 °F 31.4 °F 21.2 °F 52% 29.88 in 10.0 mi SW 8.1 mph - N/A   Clear
4:50 AM 37.4 °F 31.4 °F 21.2 °F 52% 29.89 in 10.0 mi SW 8.1 mph - N/A   Scattered Clouds
5:10 AM 37.4 °F 31.4 °F 19.4 °F 48% 29.89 in 10.0 mi SW 8.1 mph - N/A   Clear
5:30 AM 37.4 °F 32.1 °F 21.2 °F 52% 29.89 in 10.0 mi SW 6.9 mph - N/A   Clear
5:50 AM 37.4 °F 32.1 °F 21.2 °F 52% 29.88 in 10.0 mi SSW 6.9 mph - N/A   Clear
6:10 AM 37.4 °F 33.8 °F 21.2 °F 52% 29.88 in 10.0 mi South 4.6 mph - N/A   Clear
6:30 AM 37.4 °F 32.8 °F 21.2 °F 52% 29.87 in 10.0 mi South 5.8 mph - N/A   Clear
6:50 AM 37.4 °F 32.1 °F 21.2 °F 52% 29.87 in 10.0 mi SSW 6.9 mph - N/A   Clear
7:10 AM 37.4 °F 32.1 °F 19.4 °F 48% 29.88 in 10.0 mi SW 6.9 mph - N/A   Clear
7:30 AM 37.4 °F 33.8 °F 21.2 °F 52% 29.88 in 10.0 mi SSW 4.6 mph - N/A   Clear
7:50 AM 37.4 °F 33.8 °F 21.2 °F 52% 29.87 in 10.0 mi SSW 4.6 mph - N/A   Clear
8:10 AM 37.4 °F 33.8 °F 21.2 °F 52% 29.87 in 10.0 mi SSW 4.6 mph - N/A   Clear
8:30 AM 37.4 °F 33.8 °F 21.2 °F 52% 29.87 in 10.0 mi SW 4.6 mph - N/A   Scattered Clouds
8:50 AM 39.2 °F 35.0 °F 21.2 °F 49% 29.87 in 10.0 mi SW 5.8 mph - N/A   Mostly Cloudy
9:10 AM 39.2 °F 34.2 °F 21.2 °F 49% 29.86 in 10.0 mi WSW 6.9 mph - N/A   Overcast
9:30 AM 41.0 °F 37.1 °F 23.0 °F 49% 29.86 in 10.0 mi WSW 5.8 mph - N/A   Overcast
9:50 AM 42.8 °F 38.0 °F 24.8 °F 49% 29.85 in 10.0 mi WSW 8.1 mph - N/A   Mostly Cloudy
10:10 AM 42.8 °F 37.5 °F 24.8 °F 49% 29.85 in 10.0 mi WSW 9.2 mph - N/A   Scattered Clouds
10:30 AM 44.6 °F 40.7 °F 26.6 °F 49% 29.85 in 10.0 mi West 6.9 mph - N/A   Scattered Clouds
10:50 AM 46.4 °F 41.9 °F 26.6 °F 46% 29.84 in 10.0 mi West 9.2 mph - N/A   Clear
11:10 AM 48.2 °F - 28.4 °F 46% 29.84 in 10.0 mi WSW 15.0 mph 18.4 mph N/A   Clear
11:30 AM 48.2 °F - 28.4 °F 46% 29.83 in 10.0 mi West 10.4 mph 17.3 mph N/A   Clear
11:50 AM 48.2 °F - 28.4 °F 46% 29.82 in 10.0 mi West 12.7 mph - N/A   Clear
12:10 PM 50.0 °F - 28.4 °F 43% 29.81 in 10.0 mi West 6.9 mph 10.4 mph N/A   Mostly Cloudy
12:30 PM 51.8 °F - 28.4 °F 41% 29.81 in 10.0 mi WSW 8.1 mph 18.4 mph N/A   Scattered Clouds
12:50 PM 51.8 °F - 30.2 °F 44% 29.80 in 10.0 mi West 11.5 mph 17.3 mph N/A   Scattered Clouds
1:10 PM 53.6 °F - 30.2 °F 41% 29.79 in 10.0 mi West 9.2 mph - N/A   Scattered Clouds
1:30 PM 53.6 °F - 28.4 °F 38% - 10.0 mi WNW 8.1 mph - N/A   Mostly Cloudy
1:50 PM 55.4 °F - 30.2 °F 38% 29.77 in 10.0 mi West 8.1 mph - N/A   Mostly Cloudy
2:50 PM 57.2 °F - 30.2 °F 36% 29.72 in 10.0 mi SW 9.2 mph 16.1 mph N/A   Overcast
3:10 PM 59.0 °F - 30.2 °F 34% 29.72 in 10.0 mi WSW 13.8 mph - N/A   Mostly Cloudy
3:30 PM 59.0 °F - 30.2 °F 34% 29.71 in 10.0 mi SW 10.4 mph - N/A   Scattered Clouds
3:50 PM 60.8 °F - 30.2 °F 31% 29.70 in 10.0 mi WSW 10.4 mph - N/A   Scattered Clouds
4:10 PM 62.6 °F - 33.8 °F 34% 29.68 in 10.0 mi South 9.2 mph 18.4 mph N/A   Scattered Clouds
5:50 PM 59.0 °F - 30.2 °F 34% 29.65 in 10.0 mi South 9.2 mph - N/A   Clear
6:10 PM 59.0 °F - 30.2 °F 34% 29.65 in 10.0 mi South 8.1 mph - N/A   Clear
6:30 PM 57.2 °F - 30.2 °F 36% 29.65 in 10.0 mi South 8.1 mph - N/A   Clear
6:50 PM 57.2 °F - 30.2 °F 36% 29.65 in 10.0 mi South 5.8 mph - N/A   Clear
7:10 PM 55.4 °F - 28.4 °F 36% 29.66 in 10.0 mi SSW 5.8 mph - N/A   Clear
7:30 PM 53.6 °F - 28.4 °F 38% 29.66 in 10.0 mi South 6.9 mph - N/A   Clear
7:50 PM 51.8 °F - 28.4 °F 41% 29.67 in 10.0 mi SSW 6.9 mph - N/A   Clear
8:10 PM 53.6 °F - 26.6 °F 35% 29.67 in 10.0 mi SW 8.1 mph - N/A   Clear
8:25 PM 53.6 °F - 26.6 °F 35% 29.67 in 10.0 mi SSW 10.4 mph - N/A   Clear
8:50 PM 51.8 °F - 28.4 °F 41% 29.67 in 10.0 mi SSW 8.1 mph - N/A   Scattered Clouds
9:10 PM 51.8 °F - 28.4 °F 41% 29.66 in 10.0 mi SSW 9.2 mph - N/A   Clear
9:30 PM 51.8 °F - 28.4 °F 41% 29.67 in 10.0 mi SW 8.1 mph - N/A   Clear
9:50 PM 51.8 °F - 28.4 °F 41% 29.66 in 10.0 mi SW 6.9 mph - N/A   Clear
10:10 PM 51.8 °F - 28.4 °F 41% 29.66 in 10.0 mi SW 8.1 mph - N/A   Clear
10:30 PM 51.8 °F - 28.4 °F 41% 29.66 in 10.0 mi SW 9.2 mph - N/A   Scattered Clouds
10:50 PM 51.8 °F - 28.4 °F 41% 29.66 in 10.0 mi SW 6.9 mph - N/A   Scattered Clouds
11:10 PM 51.8 °F - 28.4 °F 41% 29.66 in 10.0 mi SW 6.9 mph - N/A   Clear
11:30 PM 51.8 °F - 28.4 °F 41% 29.66 in 10.0 mi SW 5.8 mph - N/A   Clear
11:50 PM 51.8 °F - 28.4 °F 41% 29.65 in 10.0 mi SW 5.8 mph - N/A   Clear